This is the latest recevied weather packets stored in our database for station/object OE5OVL-13. If no packets are shown the sender has not sent any weather packets the latest 10 day(s).
| Time | Temp. | Humidity | Pressure | Rain* | Wind** | Luminosity | Snow |
|---|---|---|---|---|---|---|---|
| 1777730706 | 35° C | 14% | 746 hPa | 0 mm | - | - | - |
| 1777729794 | 34.44° C | 15% | 745.5 hPa | 0 mm | - | - | - |
| 1777728882 | 33.33° C | 15% | 744.3 hPa | 0 mm | - | - | - |
| 1777727970 | 32.22° C | 18% | 743.2 hPa | 0 mm | - | - | - |
| 1777727059 | 31.67° C | 18% | 742.2 hPa | 0 mm | - | - | - |
| 1777726147 | 31.11° C | 20% | 741.6 hPa | 0 mm | - | - | - |
| 1777725235 | 30.56° C | 21% | 741.1 hPa | 0 mm | - | - | - |
| 1777724324 | 28.89° C | 20% | 739.2 hPa | 0 mm | - | - | - |
| 1777723412 | 28.33° C | 20% | 738.6 hPa | 0 mm | - | - | - |
| 1777722500 | 27.78° C | 23% | 737.6 hPa | 0 mm | - | - | - |
| 1777721588 | 26.67° C | 22% | 736.5 hPa | 0 mm | - | - | - |
| 1777720677 | 25.56° C | 24% | 735.5 hPa | 0 mm | - | - | - |
| 1777719765 | 25° C | 28% | 734.7 hPa | 0 mm | - | - | - |
| 1777718853 | 24.44° C | 31% | 733.9 hPa | 0 mm | - | - | - |
| 1777717941 | 23.33° C | 33% | 733.1 hPa | 0 mm | - | - | - |
| 1777717030 | 22.78° C | 34% | 732.3 hPa | 0 mm | - | - | - |
| 1777716118 | 22.22° C | 38% | 731.7 hPa | 0 mm | - | - | - |
| 1777715206 | 21.67° C | 41% | 730.7 hPa | 0 mm | - | - | - |
| 1777714294 | 20.56° C | 42% | 729.8 hPa | 0 mm | - | - | - |
| 1777713383 | 20° C | 43% | 729 hPa | 0 mm | - | - | - |
| 1777712471 | 19.44° C | 47% | 728.2 hPa | 0 mm | - | - | - |
| 1777711559 | 18.33° C | 54% | 726.9 hPa | 0 mm | - | - | - |
| 1777710647 | 17.22° C | 56% | 726 hPa | 0 mm | - | - | - |
| 1777709736 | 16.67° C | 59% | 725.1 hPa | 0 mm | - | - | - |
| 1777708824 | 16.11° C | 62% | 724.3 hPa | 0 mm | - | - | - |
* Rain latest hour (hover to see other rain measurements)
** Current wind speed in m/s (hover to see current wind gust speed)